Location: *
(49.0044°N, 9.5056°E)
Time: 21:04:03
(UTC+00:00)

Cosmos 1605 Rocket - Pass Details

Date: 22 September 2019
Orbit: 945 x 1006 km, 82.9° (Epoch: 20 October)

Event Time Altitude Azimuth Distance (km) Brightness Sun altitude
Rises 20:33:26 0° 351° (N) 3,743 7.7 -29.9°
Reaches altitude 10° 20:36:01 10° 354° (N) 2,785 6.9 -30.2°
Enters shadow 20:41:34 63° 32° (NNE) 1,108 4.2 -30.8°
